SKA85YS LFPG-GMMX

Flight info

Callsign SKA85YS
Flight time N/A
Altitude 37000
Route AGOPA DCT ARKIP DCT ARMAL DCT ARTAX DCT BEBIX DCT LMG DCT UVELI DCT OSMOB DCT ARVID DCT PPN DCT NOLSA DCT ALEPO DCT VASUM N10 BANEV/N0457F390 N10 BAN DCT GOTOR DCT KAMPO DCT MONTO DCT MOLIN DCT VJF N10 LINTO UN10 BARIS UB11 SLK UW900 TIXAL UG850 OBOGA
Aircraft A20N/M-SDE2E3FGHIRWXY/LB1

Departure

Time 2026-05-05 18:56
Airport Charles de Gaulle International Airport (LFPG)

Arrival

Time N/A
Airport Marrakesh Menara Airport (GMMX)
Time Latitude Longitude Altitude Speed Heading
2026-05-05 18:11 49.00188 2.56142 358 ft 0 kts
2026-05-05 18:36 49.00186 2.56142 354 ft 1 kts
2026-05-05 18:37 49.00184 2.56142 354 ft 0 kts
2026-05-05 18:37 49.00174 2.56142 361 ft 2 kts
2026-05-05 18:37 49.00157 2.56142 354 ft 3 kts
2026-05-05 18:38 49.00138 2.56141 354 ft 3 kts 360°
2026-05-05 18:38 49.00119 2.56142 354 ft 3 kts 355°
2026-05-05 18:38 49.00099 2.56147 362 ft 3 kts 346°
2026-05-05 18:38 49.00082 2.56159 359 ft 2 kts 289°
2026-05-05 18:39 49.00082 2.56160 359 ft 0 kts 285°
2026-05-05 18:41 49.00082 2.56159 359 ft 0 kts 288°
2026-05-05 18:48 49.00084 2.56148 359 ft 2 kts 287°
2026-05-05 18:48 49.00084 2.56127 356 ft 2 kts 263°
2026-05-05 18:48 49.00081 2.56089 354 ft 5 kts 263°
2026-05-05 18:48 49.00077 2.56027 354 ft 7 kts 265°
2026-05-05 18:49 49.00074 2.55937 358 ft 10 kts 268°
2026-05-05 18:49 49.00072 2.55817 354 ft 13 kts 269°
2026-05-05 18:49 49.00072 2.55753 354 ft 3 kts 269°
2026-05-05 18:49 49.00066 2.55695 357 ft 8 kts 246°
2026-05-05 18:50 49.00027 2.55671 354 ft 8 kts 192°
2026-05-05 18:50 48.99958 2.55661 356 ft 12 kts 202°
2026-05-05 18:50 48.99878 2.55623 357 ft 13 kts 150°
2026-05-05 18:50 48.99826 2.55751 354 ft 16 kts 118°
2026-05-05 18:51 48.99780 2.55803 358 ft 6 kts 166°
2026-05-05 18:51 48.99736 2.55814 354 ft 7 kts 175°
2026-05-05 18:51 48.99705 2.55818 357 ft 4 kts 175°
2026-05-05 18:51 48.99701 2.55818 356 ft 0 kts 175°
2026-05-05 18:52 48.99695 2.55819 359 ft 2 kts 175°
2026-05-05 18:52 48.99678 2.55821 353 ft 3 kts 175°
2026-05-05 18:53 48.99648 2.55825 353 ft 5 kts 175°
2026-05-05 18:53 48.99609 2.55836 360 ft 3 kts 144°
2026-05-05 18:53 48.99603 2.55859 357 ft 3 kts 114°
2026-05-05 18:53 48.99604 2.55878 355 ft 0 kts 82°
2026-05-05 18:55 48.99609 2.55941 353 ft 28 kts 82°
2026-05-05 18:55 48.99655 2.56686 356 ft 110 kts 87°
2026-05-05 18:56 48.99735 2.58170 385 ft 167 kts 82°
2026-05-05 18:56 48.99800 2.60017 983 ft 182 kts 84°
2026-05-05 18:56 48.99886 2.61849 2145 ft 165 kts 80°
2026-05-05 18:56 48.99996 2.63589 2978 ft 172 kts 81°
2026-05-05 18:57 49.00122 2.65530 3508 ft 196 kts 82°
2026-05-05 18:57 49.00250 2.67712 4145 ft 220 kts 83°
2026-05-05 18:57 49.00385 2.70180 4847 ft 248 kts 84°
2026-05-05 18:57 49.00528 2.72908 5768 ft 266 kts 85°
2026-05-05 18:58 49.00671 2.75748 6952 ft 272 kts 85°
2026-05-05 18:58 49.00781 2.78615 8134 ft 277 kts 93°
2026-05-05 18:58 49.00510 2.81544 9320 ft 282 kts 101°
2026-05-05 18:58 49.00171 2.84529 10362 ft 294 kts 102°
2026-05-05 18:59 48.99796 2.87733 10924 ft 321 kts 102°
2026-05-05 18:59 48.99394 2.91174 11696 ft 335 kts 101°
2026-05-05 18:59 48.98984 2.94704 12720 ft 342 kts 101°
2026-05-05 18:59 48.98482 2.98279 13677 ft 350 kts 111°
2026-05-05 19:00 48.97277 3.01464 14667 ft 348 kts 133°
2026-05-05 19:00 48.95412 3.03750 15726 ft 345 kts 154°
2026-05-05 19:00 48.93170 3.04860 16700 ft 345 kts 174°
2026-05-05 19:00 48.90779 3.04683 17673 ft 347 kts 194°
2026-05-05 19:01 48.88550 3.03246 18396 ft 353 kts 212°
2026-05-05 19:01 48.86721 3.00734 18676 ft 359 kts 231°
2026-05-05 19:01 48.85532 2.97404 18786 ft 363 kts 250°
2026-05-05 19:01 48.85125 2.93617 18806 ft 367 kts 267°
2026-05-05 19:02 48.85208 2.89742 18809 ft 368 kts 271°
2026-05-05 19:02 48.85292 2.85862 18808 ft 367 kts 268°
2026-05-05 19:02 48.85241 2.81992 18808 ft 366 kts 265°
2026-05-05 19:02 48.85076 2.78193 18822 ft 366 kts 263°
2026-05-05 19:03 48.84838 2.74348 18820 ft 366 kts 262°
2026-05-05 19:03 48.84568 2.70508 18820 ft 366 kts 262°
2026-05-05 19:03 48.84280 2.66676 18823 ft 365 kts 259°
2026-05-05 19:03 48.83675 2.62950 18821 ft 363 kts 248°
2026-05-05 19:04 48.82600 2.59476 18827 ft 368 kts 238°
2026-05-05 19:04 48.81143 2.56280 18823 ft 367 kts 234°
2026-05-05 19:04 48.79656 2.53136 18827 ft 367 kts 234°
2026-05-05 19:04 48.78167 2.49971 18939 ft 371 kts 234°
2026-05-05 19:05 48.76664 2.46765 19653 ft 374 kts 234°
2026-05-05 19:05 48.75167 2.43575 20444 ft 379 kts 234°
2026-05-05 19:05 48.73496 2.40446 21165 ft 385 kts 225°
2026-05-05 19:05 48.71488 2.37732 21899 ft 390 kts 215°
2026-05-05 19:06 48.69196 2.35499 22635 ft 394 kts 209°
2026-05-05 19:06 48.66821 2.33385 23418 ft 398 kts 209°
2026-05-05 19:06 48.64423 2.31239 24070 ft 402 kts 209°
2026-05-05 19:06 48.62006 2.29069 24735 ft 406 kts 209°
2026-05-05 19:07 48.59567 2.26879 25376 ft 410 kts 209°
2026-05-05 19:07 48.57940 2.25418 25639 ft 413 kts 209°
2026-05-05 19:07 48.54630 2.22447 25817 ft 414 kts 209°
2026-05-05 19:07 48.52154 2.20229 25825 ft 414 kts 209°
2026-05-05 19:08 48.49678 2.18017 25823 ft 414 kts 208°
2026-05-05 19:08 48.47191 2.15825 25822 ft 414 kts 208°
2026-05-05 19:08 48.44688 2.13634 25824 ft 418 kts 208°
2026-05-05 19:08 48.42209 2.11466 25824 ft 418 kts 208°
2026-05-05 19:09 48.39695 2.09268 25824 ft 418 kts 209°
2026-05-05 19:09 48.37178 2.07066 25824 ft 418 kts 209°
2026-05-05 19:09 48.34667 2.04870 25826 ft 418 kts 209°
2026-05-05 19:09 48.32141 2.02721 25825 ft 417 kts 205°
2026-05-05 19:10 48.29431 2.01181 25826 ft 416 kts 193°
2026-05-05 19:10 48.26586 2.00482 25827 ft 414 kts 181°
2026-05-05 19:10 48.23716 2.00500 25827 ft 413 kts 177°
2026-05-05 19:10 48.20842 2.00600 25830 ft 413 kts 177°
2026-05-05 19:11 48.17985 2.00693 25835 ft 408 kts 177°
2026-05-05 19:11 48.15156 2.00779 25838 ft 408 kts 178°
2026-05-05 19:11 48.12348 2.00862 25841 ft 409 kts 178°
2026-05-05 19:11 48.09509 2.00944 25842 ft 408 kts 178°
2026-05-05 19:12 48.06658 2.01038 25846 ft 415 kts 177°
2026-05-05 19:12 48.03733 2.01203 25847 ft 423 kts 176°
2026-05-05 19:12 48.00793 2.01395 25849 ft 422 kts 176°
2026-05-05 19:12 47.97864 2.01585 25854 ft 420 kts 176°
2026-05-05 19:13 47.94951 2.01768 25865 ft 421 kts 176°
2026-05-05 19:13 47.92005 2.01948 26293 ft 424 kts 176°
2026-05-05 19:13 47.89057 2.02125 26990 ft 425 kts 176°
2026-05-05 19:13 47.86088 2.02302 27553 ft 429 kts 176°
2026-05-05 19:14 47.83088 2.02480 28095 ft 433 kts 176°
2026-05-05 19:14 47.80109 2.02656 28590 ft 436 kts 176°
2026-05-05 19:14 47.77067 2.02835 29085 ft 440 kts 176°
2026-05-05 19:14 47.73994 2.03016 29529 ft 444 kts 175°
2026-05-05 19:15 47.70893 2.03198 30005 ft 447 kts 175°
2026-05-05 19:15 47.67775 2.03382 30458 ft 450 kts 176°
2026-05-05 19:15 47.64643 2.03566 30921 ft 452 kts 176°
2026-05-05 19:15 47.61501 2.03750 31459 ft 451 kts 176°
2026-05-05 19:16 47.58371 2.03929 32067 ft 449 kts 177°
2026-05-05 19:16 47.55258 2.04106 32720 ft 446 kts 177°
2026-05-05 19:16 47.52205 2.04280 33375 ft 443 kts 177°
2026-05-05 19:16 47.49134 2.04455 33971 ft 440 kts 178°
2026-05-05 19:17 47.46078 2.04630 34405 ft 440 kts 178°
2026-05-05 19:17 47.43016 2.04805 34793 ft 440 kts 178°
2026-05-05 19:17 47.39954 2.04979 35179 ft 440 kts 178°
2026-05-05 19:17 47.36894 2.05152 35561 ft 441 kts 178°
2026-05-05 19:18 47.33830 2.05081 35943 ft 440 kts 184°
2026-05-05 19:18 47.30829 2.04539 36303 ft 440 kts 190°
2026-05-05 19:18 47.27814 2.03754 36653 ft 441 kts 190°
2026-05-05 19:18 47.24794 2.02972 36818 ft 440 kts 190°
2026-05-05 19:19 47.18783 2.01438 36841 ft 438 kts 190°
2026-05-05 19:19 47.12770 1.99920 36855 ft 438 kts 190°
2026-05-05 19:20 47.06756 1.98406 36856 ft 438 kts 190°
2026-05-05 19:20 47.00783 1.96906 36856 ft 438 kts 190°
2026-05-05 19:21 46.94772 1.95399 36855 ft 438 kts 190°
2026-05-05 19:21 46.88757 1.93896 36853 ft 438 kts 190°
2026-05-05 19:22 46.83761 1.92649 36853 ft 438 kts 190°
2026-05-05 19:22 46.76779 1.90910 36856 ft 438 kts 190°
2026-05-05 19:23 46.70768 1.89417 36860 ft 438 kts 190°
2026-05-05 19:23 46.64760 1.87928 36860 ft 438 kts 190°
2026-05-05 19:24 46.59768 1.86694 36869 ft 438 kts 190°
2026-05-05 19:24 46.52785 1.84971 36874 ft 438 kts 190°
2026-05-05 19:25 46.46781 1.83492 36883 ft 437 kts 190°
2026-05-05 19:25 46.41796 1.82267 36889 ft 437 kts 190°
2026-05-05 19:26 46.35796 1.80796 36894 ft 437 kts 190°
2026-05-05 19:26 46.29823 1.79186 36902 ft 436 kts 196°
2026-05-05 19:27 46.24254 1.75810 36894 ft 435 kts 211°
2026-05-05 19:27 46.19458 1.70510 36903 ft 435 kts 221°
2026-05-05 19:28 46.14925 1.64808 36898 ft 435 kts 220°
2026-05-05 19:28 46.10355 1.59109 36900 ft 435 kts 220°
2026-05-05 19:29 46.05772 1.53414 36905 ft 435 kts 220°
2026-05-05 19:29 46.01187 1.47730 36898 ft 435 kts 220°
2026-05-05 19:30 45.96789 1.41830 36917 ft 436 kts 227°
2026-05-05 19:30 45.93163 1.34853 36909 ft 437 kts 238°
2026-05-05 19:31 45.90339 1.27119 36912 ft 438 kts 242°
2026-05-05 19:31 45.87582 1.19320 36909 ft 438 kts 242°
2026-05-05 19:32 45.84826 1.11591 36906 ft 438 kts 242°
2026-05-05 19:32 45.81660 1.04149 36921 ft 437 kts 232°
2026-05-05 19:33 45.77560 0.97730 36908 ft 437 kts 221°
2026-05-05 19:33 45.72901 0.92147 36915 ft 437 kts 220°
2026-05-05 19:34 45.68237 0.86572 36933 ft 437 kts 220°
2026-05-05 19:35 45.61283 0.78278 36935 ft 437 kts 220°
2026-05-05 19:35 45.56605 0.72717 36919 ft 437 kts 220°
2026-05-05 19:36 45.51925 0.67168 36929 ft 437 kts 220°
2026-05-05 19:36 45.47272 0.61662 36929 ft 438 kts 220°
2026-05-05 19:37 45.42584 0.56127 36927 ft 438 kts 220°
2026-05-05 19:37 45.37895 0.50603 36936 ft 438 kts 220°
2026-05-05 19:38 45.33202 0.45092 36936 ft 437 kts 220°
2026-05-05 19:38 45.28508 0.39589 36934 ft 437 kts 220°
2026-05-05 19:39 45.23847 0.34135 36930 ft 438 kts 220°
2026-05-05 19:39 45.19147 0.28646 36932 ft 438 kts 220°
2026-05-05 19:40 45.14443 0.23168 36930 ft 438 kts 220°
2026-05-05 19:40 45.09738 0.17697 36939 ft 437 kts 220°
2026-05-05 19:41 45.05035 0.12240 36938 ft 437 kts 220°
2026-05-05 19:41 45.00357 0.06826 36940 ft 437 kts 220°
2026-05-05 19:42 44.95651 0.01394 36955 ft 437 kts 220°
2026-05-05 19:42 44.90942 -0.04032 36935 ft 437 kts 220°
2026-05-05 19:43 44.86237 -0.09443 36937 ft 437 kts 220°
2026-05-05 19:43 44.81551 -0.14819 36937 ft 437 kts 220°
2026-05-05 19:44 44.76834 -0.20220 36940 ft 437 kts 220°
2026-05-05 19:44 44.72114 -0.25612 36945 ft 437 kts 220°
2026-05-05 19:45 44.67392 -0.30992 36956 ft 437 kts 219°
2026-05-05 19:45 44.62365 -0.35727 36945 ft 439 kts 210°
2026-05-05 19:46 44.56946 -0.39696 36954 ft 439 kts 209°
2026-05-05 19:46 44.51535 -0.43660 36955 ft 439 kts 209°
2026-05-05 19:47 44.46126 -0.47627 36958 ft 439 kts 209°
2026-05-05 19:47 44.40753 -0.51559 36964 ft 438 kts 209°
2026-05-05 19:48 44.35357 -0.55499 36971 ft 437 kts 209°
2026-05-05 19:48 44.29962 -0.59431 36968 ft 437 kts 209°
2026-05-05 19:49 44.24570 -0.63352 36968 ft 437 kts 209°
2026-05-05 19:49 44.19224 -0.67231 36972 ft 436 kts 209°
2026-05-05 19:50 44.13849 -0.71123 36973 ft 435 kts 209°
2026-05-05 19:50 44.08477 -0.75006 36967 ft 435 kts 209°
2026-05-05 19:51 44.03102 -0.78883 36968 ft 436 kts 209°
2026-05-05 19:51 43.97720 -0.82755 36976 ft 436 kts 209°
2026-05-05 19:52 43.92372 -0.86597 36974 ft 436 kts 209°
2026-05-05 19:52 43.86981 -0.90462 36978 ft 436 kts 209°
2026-05-05 19:53 43.81586 -0.94320 36989 ft 436 kts 209°
2026-05-05 19:53 43.76195 -0.98168 37001 ft 436 kts 209°
2026-05-05 19:54 43.70801 -1.02011 37000 ft 436 kts 209°
2026-05-05 19:54 43.65445 -1.05820 37000 ft 436 kts 209°
2026-05-05 19:55 43.60052 -1.09645 37005 ft 435 kts 210°
2026-05-05 19:55 43.54668 -1.13457 37003 ft 435 kts 210°
2026-05-05 19:56 43.49284 -1.17262 36996 ft 435 kts 210°
2026-05-05 19:56 43.43931 -1.21038 36993 ft 435 kts 210°
2026-05-05 19:57 43.38551 -1.24823 37003 ft 434 kts 210°
2026-05-05 19:57 43.33175 -1.28599 37003 ft 434 kts 210°
2026-05-05 19:58 43.27796 -1.32371 37001 ft 434 kts 210°
2026-05-05 19:58 43.22454 -1.36108 37007 ft 434 kts 210°
2026-05-05 19:59 43.17077 -1.39861 37009 ft 433 kts 210°
2026-05-05 19:59 43.11703 -1.43607 37012 ft 433 kts 210°
2026-05-05 20:00 43.06335 -1.47343 37014 ft 433 kts 210°
2026-05-05 20:00 43.01003 -1.51056 37001 ft 433 kts 210°
2026-05-05 20:01 42.95640 -1.54785 37017 ft 432 kts 210°
2026-05-05 20:01 42.90277 -1.58508 37014 ft 433 kts 210°
2026-05-05 20:02 42.84909 -1.62227 36993 ft 433 kts 210°
2026-05-05 20:02 42.79539 -1.65939 36994 ft 433 kts 210°
2026-05-05 20:03 42.74202 -1.69621 36992 ft 433 kts 210°
2026-05-05 20:03 42.68811 -1.73289 36995 ft 433 kts 210°
2026-05-05 20:04 42.63404 -1.76913 37008 ft 434 kts 210°
2026-05-05 20:04 42.57990 -1.80543 37011 ft 433 kts 210°
2026-05-05 20:05 42.52589 -1.84162 37012 ft 433 kts 210°
2026-05-05 20:05 42.47227 -1.87750 37019 ft 433 kts 210°
2026-05-05 20:06 42.41833 -1.91352 37015 ft 432 kts 210°
2026-05-05 20:06 42.36433 -1.94949 37012 ft 431 kts 210°
2026-05-05 20:07 42.31051 -1.98528 37015 ft 431 kts 210°
2026-05-05 20:07 42.25709 -2.02074 37020 ft 431 kts 210°
2026-05-05 20:08 42.20329 -2.05639 37023 ft 430 kts 210°
2026-05-05 20:08 42.14957 -2.09189 37024 ft 430 kts 210°
2026-05-05 20:09 42.09590 -2.12731 37017 ft 429 kts 210°
2026-05-05 20:09 42.04261 -2.16242 37017 ft 429 kts 210°
2026-05-05 20:10 41.98901 -2.19766 37018 ft 429 kts 210°
2026-05-05 20:10 41.93545 -2.23279 37024 ft 428 kts 211°
2026-05-05 20:11 41.88191 -2.26787 37022 ft 428 kts 211°
2026-05-05 20:11 41.82869 -2.30267 37021 ft 429 kts 211°
2026-05-05 20:12 41.77503 -2.33769 37019 ft 429 kts 211°
2026-05-05 20:12 41.72136 -2.37263 37024 ft 428 kts 211°
2026-05-05 20:13 41.66777 -2.40747 37027 ft 428 kts 211°
2026-05-05 20:13 41.61414 -2.44227 37026 ft 428 kts 211°
2026-05-05 20:14 41.56092 -2.47674 37025 ft 428 kts 211°
2026-05-05 20:14 41.50738 -2.51134 37020 ft 426 kts 211°
2026-05-05 20:15 41.45407 -2.54574 37019 ft 426 kts 211°
2026-05-05 20:15 41.40074 -2.58011 37021 ft 426 kts 211°
2026-05-05 20:16 41.34775 -2.61417 37025 ft 426 kts 211°
2026-05-05 20:16 41.29718 -2.65356 37042 ft 417 kts 220°
2026-05-05 20:17 41.24962 -2.69769 37006 ft 416 kts 220°
2026-05-05 20:17 41.20183 -2.74181 37019 ft 420 kts 219°
2026-05-05 20:18 41.15419 -2.78556 37019 ft 419 kts 219°
2026-05-05 20:18 41.10617 -2.82957 37019 ft 420 kts 219°
2026-05-05 20:19 41.05833 -2.87332 37018 ft 416 kts 219°
2026-05-05 20:19 41.01063 -2.91691 37016 ft 417 kts 219°
2026-05-05 20:20 40.96316 -2.96019 37012 ft 417 kts 219°
2026-05-05 20:20 40.91544 -3.00361 37009 ft 417 kts 219°
2026-05-05 20:21 40.86765 -3.04702 36980 ft 417 kts 219°
2026-05-05 20:21 40.81997 -3.09023 37004 ft 414 kts 220°
2026-05-05 20:22 40.77242 -3.13329 37005 ft 415 kts 220°
2026-05-05 20:22 40.72520 -3.17597 37004 ft 415 kts 220°
2026-05-05 20:23 40.67760 -3.21891 36997 ft 414 kts 219°
2026-05-05 20:23 40.62994 -3.26182 36998 ft 415 kts 219°
2026-05-05 20:24 40.58221 -3.30472 37001 ft 416 kts 219°
2026-05-05 20:24 40.53469 -3.34736 37006 ft 416 kts 219°
2026-05-05 20:25 40.48679 -3.39025 37007 ft 417 kts 219°
2026-05-05 20:25 40.43882 -3.43314 37009 ft 417 kts 219°
2026-05-05 20:26 40.39098 -3.47582 36991 ft 414 kts 219°
2026-05-05 20:26 40.34335 -3.51826 36997 ft 414 kts 219°
2026-05-05 20:27 40.29605 -3.56034 36993 ft 414 kts 219°
2026-05-05 20:27 40.24834 -3.60271 36992 ft 414 kts 219°
2026-05-05 20:28 40.20063 -3.64499 36992 ft 414 kts 219°
2026-05-05 20:28 40.15302 -3.68711 36998 ft 413 kts 219°
2026-05-05 20:29 40.10578 -3.72886 36992 ft 413 kts 219°
2026-05-05 20:29 40.05823 -3.77078 36978 ft 412 kts 219°
2026-05-05 20:30 40.01074 -3.81257 36974 ft 412 kts 219°
2026-05-05 20:30 39.96315 -3.85438 36951 ft 412 kts 219°
2026-05-05 20:31 39.91611 -3.89565 36984 ft 410 kts 219°
2026-05-05 20:31 39.86875 -3.93714 36984 ft 410 kts 219°
2026-05-05 20:32 39.82137 -3.97856 36985 ft 410 kts 219°
2026-05-05 20:32 39.77395 -4.01995 36986 ft 410 kts 219°
2026-05-05 20:33 39.72689 -4.06095 36965 ft 410 kts 219°
2026-05-05 20:33 39.67953 -4.10214 36987 ft 410 kts 219°
2026-05-05 20:34 39.63212 -4.14331 36987 ft 410 kts 219°
2026-05-05 20:34 39.58474 -4.18438 36992 ft 410 kts 219°
2026-05-05 20:35 39.53732 -4.22542 36989 ft 410 kts 219°
2026-05-05 20:35 39.49026 -4.26607 36979 ft 408 kts 219°
2026-05-05 20:36 39.44296 -4.30687 36992 ft 408 kts 219°
2026-05-05 20:36 39.39566 -4.34761 36997 ft 408 kts 219°
2026-05-05 20:37 39.34834 -4.38829 36996 ft 409 kts 219°
2026-05-05 20:37 39.30098 -4.42894 36990 ft 408 kts 219°
2026-05-05 20:38 39.25395 -4.46924 36987 ft 408 kts 219°
2026-05-05 20:38 39.20666 -4.50970 36994 ft 408 kts 219°
2026-05-05 20:39 39.15935 -4.55011 36995 ft 408 kts 219°
2026-05-05 20:39 39.11199 -4.59048 36994 ft 408 kts 219°
2026-05-05 20:40 39.06490 -4.63057 36997 ft 409 kts 219°
2026-05-05 20:40 39.01720 -4.67048 36995 ft 410 kts 216°
2026-05-05 20:41 38.96556 -4.70285 36994 ft 417 kts 207°
2026-05-05 20:41 38.91104 -4.72900 36996 ft 418 kts 207°
2026-05-05 20:42 38.85692 -4.75513 36999 ft 418 kts 207°
2026-05-05 20:42 38.80248 -4.78149 36999 ft 418 kts 207°
2026-05-05 20:43 38.74808 -4.80777 36999 ft 418 kts 207°
2026-05-05 20:43 38.69362 -4.83404 37005 ft 418 kts 207°
2026-05-05 20:44 38.66985 -4.84549 37004 ft 418 kts 207°
2026-05-05 20:44 38.64619 -4.85688 37003 ft 418 kts 207°
2026-05-05 20:45 38.63404 -4.86272 37003 ft 418 kts 207°
2026-05-05 20:46 38.62401 -4.86754 37005 ft 418 kts 207°
2026-05-05 20:52 38.61618 -4.87131 37004 ft 418 kts 207°
2026-05-05 20:52 38.60202 -4.87812 37003 ft 418 kts 207°
2026-05-05 20:53 38.54759 -4.90425 36968 ft 417 kts 206°
2026-05-05 20:53 38.49365 -4.93011 36997 ft 417 kts 206°
2026-05-05 20:54 38.43930 -4.95612 36994 ft 417 kts 206°
2026-05-05 20:54 38.38493 -4.98210 36996 ft 418 kts 206°
2026-05-05 20:55 38.33049 -5.00807 37000 ft 418 kts 206°
2026-05-05 20:55 38.27602 -5.03401 37000 ft 418 kts 206°
2026-05-05 20:56 38.22187 -5.05976 37012 ft 418 kts 206°
2026-05-05 20:56 38.16724 -5.08569 37012 ft 419 kts 206°
2026-05-05 20:57 38.11269 -5.11155 37010 ft 419 kts 206°
2026-05-05 20:57 38.05807 -5.13742 37005 ft 418 kts 206°
2026-05-05 20:58 38.00392 -5.16301 37003 ft 419 kts 206°
2026-05-05 20:58 37.94930 -5.18876 36994 ft 419 kts 206°
2026-05-05 20:59 37.89461 -5.21452 36991 ft 419 kts 206°
2026-05-05 20:59 37.83994 -5.24023 36996 ft 419 kts 206°
2026-05-05 21:00 37.78564 -5.26575 36994 ft 419 kts 206°
2026-05-05 21:00 37.73092 -5.29139 36994 ft 420 kts 206°
2026-05-05 21:01 37.67618 -5.31701 36999 ft 420 kts 206°
2026-05-05 21:01 37.62130 -5.34265 37001 ft 421 kts 206°
2026-05-05 21:02 37.56684 -5.36807 36994 ft 420 kts 205°
2026-05-05 21:02 37.51188 -5.39366 37001 ft 421 kts 205°
2026-05-05 21:03 37.45690 -5.41923 37003 ft 421 kts 205°
2026-05-05 21:03 37.40185 -5.44480 37006 ft 422 kts 205°
2026-05-05 21:04 37.34676 -5.47034 36992 ft 422 kts 205°
2026-05-05 21:04 37.29201 -5.49568 37008 ft 422 kts 205°
2026-05-05 21:05 37.23685 -5.52118 37013 ft 423 kts 205°
2026-05-05 21:05 37.18167 -5.54664 37018 ft 423 kts 205°
2026-05-05 21:06 37.12639 -5.57211 37021 ft 423 kts 205°
2026-05-05 21:06 37.07150 -5.59737 37014 ft 423 kts 205°
2026-05-05 21:07 37.01619 -5.62277 37015 ft 424 kts 205°
2026-05-05 21:07 36.96085 -5.64815 37016 ft 424 kts 205°
2026-05-05 21:08 36.90547 -5.67351 37019 ft 424 kts 205°
2026-05-05 21:08 36.85002 -5.69886 37005 ft 424 kts 205°
2026-05-05 21:09 36.79498 -5.72399 37023 ft 424 kts 205°
2026-05-05 21:09 36.73951 -5.74926 37022 ft 425 kts 205°
2026-05-05 21:10 36.68583 -5.77369 37027 ft 425 kts 205°
2026-05-05 21:12 36.67950 -5.77657 37029 ft 425 kts 205°
2026-05-05 21:22 36.67646 -5.77796 37031 ft 425 kts 205°
2026-05-05 21:23 36.67356 -5.77927 37033 ft 425 kts 205°
2026-05-05 21:26 36.66305 -5.78405 37026 ft 426 kts 205°
2026-05-05 21:27 36.66085 -5.78505 37023 ft 426 kts 205°
2026-05-05 21:37 36.65216 -5.78900 37009 ft 425 kts 205°
2026-05-05 21:55 36.64415 -5.79264 37012 ft 426 kts 205°
2026-05-05 22:17 36.63319 -5.79762 37001 ft 426 kts 205°
2026-05-05 22:18 36.62968 -5.79921 37001 ft 426 kts 205°